Location: Newark
(50.0306°N, 2.3272°E)
Time: 06:30:08
(UTC+00:00)

Vanguard 1 - Pass Details

Date: 15 December 2019
Orbit: 650 x 3833 km, 34.2° (Epoch: 27 January)

Event Time Altitude Azimuth Distance (km) Brightness Sun altitude
Exits shadow 04:48:00 19° 239° (WSW) 6,135 13.6 -26.7°
Maximum altitude 05:05:21 50° 179° (S) 4,219 13.2 -23.9°
Drops below altitude 10° 05:22:19 10° 111° (ESE) 5,465 15.0 -21.2°
Sets 05:25:56 0° 106° (ESE) 6,119 15.7 -20.7°
